{"data":{"norad_id":63478,"epoch":"2026-09-20T15:11:38.575104Z","epoch_age_seconds":144437,"freshness":"FRESH","line1":"1 63478U 25070U   26263.63308536  .00019869  00000+0  72934-3 0  9995","line2":"2 63478  43.0015 235.1040 0001248 273.9166  86.1543 15.27592131 82831","mean_motion":15.27592131,"eccentricity":0.0001248,"inclination_deg":43.0015,"raan_deg":235.104,"arg_perigee_deg":273.9166,"mean_anomaly_deg":86.1543,"bstar":0.00072934,"rev_number":8283,"period_min":94.266000117279,"perigee_km":482.15650021043,"apogee_km":483.86904319344,"semimajor_km":6861.1497717019,"source":"CELESTRAK","updated_at":"2026-09-21T09:00:35.010947Z"}}